STARLINK-34126 (64083 NORAD) Tracking and Keplerian Element Data

This shows tracking and keplerian element data for the satellite.

Feedback or suggestion? Click here.




ElementValue
Catalog64083
NameSTARLINK-34126
Epoch Orbit3286
Epoch Day354.15277685
Epoch Year2025
RAAN290.964
Inclination43.0039
Eccentricity0.0001701
Argument of Perigee242.7737
Mean Anonmoly117.2941
Mean Motion15.27555649
Decay Rate0.00013631
L11 64083U 25107V 25354.15277685 .00013631 00000+0 50431-3 0 9995
L22 64083 43.0039 290.9640 0001701 242.7737 117.2941 15.27555649 32866



Live tracking and technical data element details for STARLINK-34126 (NORAD 64083). STARLINK-34126 can be tracked NOW for your location showing map with azimuth and elevation plus other details from your city location.







IsCatalogInMostPopularTable: catalog: 64083, numindb: 5
Update: records affected: 1



GetName: 64083 STARLINK-34126

Hit Count: updated at: Tue, 21 Apr 2026 20:26:02 GMT